Time,TemperatureF,DewpointF,PressureIn,WindDirection,WindDirectionDegrees,WindSpeedMPH,WindSpeedGustMPH,Humidity,HourlyPrecipIn,Conditions,Clouds,dailyrainin,SoftwareType,DateUTC
2013-01-14 08:00:00,-3.1,-9.6,29.54,North,0,0.0,0.0,73,0.00,CLR,,0.00,WeatherDisplay:10.37,2013-01-14 15:00:00,
2013-01-14 08:01:00,-3.1,-9.6,29.54,North,0,0.0,0.0,73,0.00,CLR,,0.00,WeatherDisplay:10.37,2013-01-14 15:01:00,
2013-01-14 08:06:00,-2.7,-9.3,29.54,North,0,0.0,0.0,73,0.00,CLR,,0.00,WeatherDisplay:10.37,2013-01-14 15:06:00,
2013-01-14 08:11:00,-2.7,-9.3,29.54,NNW,338,0.0,0.0,73,0.00,CLR,,0.00,WeatherDisplay:10.37,2013-01-14 15:11:00,
2013-01-14 08:16:00,-2.6,-9.1,29.54,NNW,338,0.0,0.0,73,0.00,CLR,,0.00,WeatherDisplay:10.37,2013-01-14 15:16:00,
2013-01-14 08:21:00,-2.0,-8.6,29.54,NNW,338,0.0,0.0,73,0.00,CLR,,0.00,WeatherDisplay:10.37,2013-01-14 15:21:00,
2013-01-14 08:26:00,-2.0,-8.6,29.54,North,0,0.0,0.0,73,0.00,CLR,,0.00,WeatherDisplay:10.37,2013-01-14 15:26:00,
2013-01-14 08:31:00,-1.7,-8.2,29.54,NNW,338,0.0,0.0,73,0.00,CLR,,0.00,WeatherDisplay:10.37,2013-01-14 15:31:00,
2013-01-14 08:36:00,-1.3,-7.9,29.54,North,0,0.0,0.0,73,0.00,CLR,,0.00,WeatherDisplay:10.37,2013-01-14 15:36:00,
2013-01-14 08:41:00,-0.9,-7.5,29.54,North,0,0.0,0.0,73,0.00,CLR,,0.00,WeatherDisplay:10.37,2013-01-14 15:41:00,
2013-01-14 08:46:00,-0.6,-6.9,29.54,North,0,0.0,0.0,74,0.00,CLR,,0.00,WeatherDisplay:10.37,2013-01-14 15:46:00,
2013-01-14 08:51:00,0.1,-6.2,29.54,NNW,338,0.0,0.0,74,0.00,CLR,,0.00,WeatherDisplay:10.37,2013-01-14 15:51:00,
2013-01-14 08:56:00,0.1,-6.2,29.54,North,0,0.0,0.0,74,0.00,CLR,,0.00,WeatherDisplay:10.37,2013-01-14 15:56:00,
2013-01-14 09:01:00,0.9,-5.5,29.54,North,0,0.0,0.0,74,0.00,CLR,,0.00,WeatherDisplay:10.37,2013-01-14 16:01:00,
2013-01-14 09:06:00,0.9,-5.5,29.54,North,0,0.0,0.0,74,0.00,CLR,,0.00,WeatherDisplay:10.37,2013-01-14 16:06:00,
2013-01-14 09:11:00,1.2,-5.1,29.54,NNW,338,0.0,0.0,74,0.00,CLR,,0.00,WeatherDisplay:10.37,2013-01-14 16:11:00,
2013-01-14 09:16:00,1.6,-4.8,29.55,NNW,338,0.0,0.0,74,0.00,CLR,,0.00,WeatherDisplay:10.37,2013-01-14 16:16:00,
2013-01-14 09:21:00,1.9,-4.4,29.55,NW,315,0.0,0.0,74,0.00,CLR,,0.00,WeatherDisplay:10.37,2013-01-14 16:21:00,
2013-01-14 09:26:00,2.3,-4.1,29.55,SSE,158,0.0,0.0,74,0.00,CLR,,0.00,WeatherDisplay:10.37,2013-01-14 16:26:00,
2013-01-14 09:31:00,3.0,-3.4,29.55,NE,45,0.0,0.0,74,0.00,CLR,,0.00,WeatherDisplay:10.37,2013-01-14 16:31:00,
2013-01-14 09:36:00,3.2,-3.2,29.55,North,0,0.0,0.0,74,0.00,CLR,,0.00,WeatherDisplay:10.37,2013-01-14 16:36:00,
2013-01-14 09:41:00,3.7,-2.7,29.55,North,0,0.0,0.0,74,0.00,CLR,,0.00,WeatherDisplay:10.37,2013-01-14 16:41:00,
2013-01-14 09:46:00,3.9,-2.5,29.55,North,0,0.0,0.0,74,0.00,CLR,,0.00,WeatherDisplay:10.37,2013-01-14 16:46:00,
2013-01-14 09:51:00,4.8,-1.4,29.55,West,270,0.0,0.0,75,0.00,CLR,,0.00,WeatherDisplay:10.37,2013-01-14 16:51:00,
2013-01-14 09:56:00,5.2,-1.0,29.55,West,270,0.0,0.0,75,0.00,CLR,,0.00,WeatherDisplay:10.37,2013-01-14 16:56:00,
2013-01-14 10:01:00,5.5,-0.7,29.55,South,180,0.0,0.0,75,0.00,CLR,,0.00,WeatherDisplay:10.37,2013-01-14 17:01:00,
2013-01-14 10:06:00,5.9,-0.3,29.55,East,90,0.0,0.0,75,0.00,CLR,,0.00,WeatherDisplay:10.37,2013-01-14 17:06:00,
2013-01-14 10:11:00,6.6,0.4,29.55,ENE,68,0.0,0.0,75,0.00,CLR,,0.00,WeatherDisplay:10.37,2013-01-14 17:11:00,
2013-01-14 10:16:00,6.6,0.4,29.53,ENE,68,0.0,0.0,75,0.00,CLR,,0.00,WeatherDisplay:10.37,2013-01-14 17:16:00,
2013-01-14 10:21:00,7.3,1.1,29.53,North,0,0.0,0.0,75,0.00,CLR,,0.00,WeatherDisplay:10.37,2013-01-14 17:21:00,
2013-01-14 10:26:00,7.7,1.4,29.53,North,0,0.0,0.0,75,0.00,CLR,,0.00,WeatherDisplay:10.37,2013-01-14 17:26:00,
2013-01-14 10:31:00,8.2,1.9,29.53,ESE,112,0.0,0.0,75,0.00,CLR,,0.00,WeatherDisplay:10.37,2013-01-14 17:31:00,
2013-01-14 10:36:00,8.8,2.5,29.51,ESE,112,0.0,0.0,75,0.00,CLR,,0.00,WeatherDisplay:10.37,2013-01-14 17:36:00,
2013-01-14 10:41:00,9.1,2.8,29.51,NNW,338,0.0,0.0,75,0.00,CLR,,0.00,WeatherDisplay:10.37,2013-01-14 17:41:00,
2013-01-14 10:46:00,9.9,3.5,29.51,NE,45,2.3,2.3,75,0.00,CLR,,0.00,WeatherDisplay:10.37,2013-01-14 17:46:00,
2013-01-14 10:51:00,10.2,3.9,29.51,NW,315,0.0,0.5,75,0.00,CLR,,0.00,WeatherDisplay:10.37,2013-01-14 17:51:00,
2013-01-14 10:56:00,10.6,4.2,29.52,WSW,248,0.0,0.5,75,0.00,CLR,,0.00,WeatherDisplay:10.37,2013-01-14 17:56:00,
2013-01-14 11:01:00,11.3,4.9,29.52,ENE,68,0.0,0.0,75,0.00,CLR,,0.00,WeatherDisplay:10.37,2013-01-14 18:01:00,
2013-01-14 11:06:00,11.7,5.3,29.52,NW,315,0.0,0.0,75,0.00,CLR,,0.00,WeatherDisplay:10.37,2013-01-14 18:06:00,
2013-01-14 11:11:00,12.4,6.0,29.52,WSW,248,0.0,0.1,75,0.00,CLR,,0.00,WeatherDisplay:10.37,2013-01-14 18:11:00,
2013-01-14 11:16:00,12.7,6.3,29.52,NNE,22,0.0,0.2,75,0.00,CLR,,0.00,WeatherDisplay:10.37,2013-01-14 18:16:00,
2013-01-14 11:21:00,13.3,6.8,29.52,NW,315,0.0,0.2,75,0.00,CLR,,0.00,WeatherDisplay:10.37,2013-01-14 18:21:00,
2013-01-14 11:26:00,13.8,7.4,29.52,NNW,338,0.0,0.0,75,0.00,CLR,,0.00,WeatherDisplay:10.37,2013-01-14 18:26:00,
2013-01-14 11:31:00,14.5,8.1,29.52,SSW,202,0.0,0.1,75,0.00,CLR,,0.00,WeatherDisplay:10.37,2013-01-14 18:31:00,
2013-01-14 11:36:00,14.5,8.1,29.52,West,270,0.0,0.1,75,0.00,CLR,,0.00,WeatherDisplay:10.37,2013-01-14 18:36:00,
2013-01-14 11:41:00,15.3,8.8,29.52,WSW,248,0.0,0.0,75,0.00,CLR,,0.00,WeatherDisplay:10.37,2013-01-14 18:41:00,
2013-01-14 11:46:00,15.4,8.6,29.52,WSW,248,0.0,0.0,74,0.00,CLR,,0.00,WeatherDisplay:10.37,2013-01-14 18:46:00,
2013-01-14 11:51:00,16.0,9.2,29.52,SSW,202,0.0,0.0,74,0.00,CLR,,0.00,WeatherDisplay:10.37,2013-01-14 18:51:00,
2013-01-14 11:56:00,16.0,9.2,29.52,South,180,0.0,0.1,74,0.00,CLR,,0.00,WeatherDisplay:10.37,2013-01-14 18:56:00,
2013-01-14 12:01:00,16.7,10.1,29.52,WSW,248,0.0,0.1,75,0.00,CLR,,0.00,WeatherDisplay:10.37,2013-01-14 19:01:00,
2013-01-14 12:06:00,16.7,10.1,29.52,South,180,0.0,0.0,75,0.00,CLR,,0.00,WeatherDisplay:10.37,2013-01-14 19:06:00,
2013-01-14 12:11:00,17.1,10.5,29.52,East,90,0.0,0.2,75,0.00,CLR,,0.00,WeatherDisplay:10.37,2013-01-14 19:11:00,
2013-01-14 12:16:00,17.4,10.5,29.55,East,90,2.3,2.3,74,0.00,CLR,,0.00,WeatherDisplay:10.37,2013-01-14 19:16:00,
2013-01-14 12:21:00,17.8,10.9,29.55,ENE,68,0.0,0.3,74,0.00,CLR,,0.00,WeatherDisplay:10.37,2013-01-14 19:21:00,
2013-01-14 12:26:00,18.1,11.2,29.55,WNW,292,0.0,0.0,74,0.00,CLR,,0.00,WeatherDisplay:10.37,2013-01-14 19:26:00,
2013-01-14 12:31:00,18.5,11.6,29.55,West,270,0.0,0.0,74,0.00,CLR,,0.00,WeatherDisplay:10.37,2013-01-14 19:31:00,
2013-01-14 12:36:00,18.3,11.4,29.55,SW,225,0.0,0.0,74,0.00,CLR,,0.00,WeatherDisplay:10.37,2013-01-14 19:36:00,
2013-01-14 12:41:00,18.5,11.6,29.55,ESE,112,0.0,0.0,74,0.00,CLR,,0.00,WeatherDisplay:10.37,2013-01-14 19:41:00,
2013-01-14 12:46:00,18.7,11.8,29.55,ENE,68,1.1,1.1,74,0.00,CLR,,0.00,WeatherDisplay:10.37,2013-01-14 19:46:00,
2013-01-14 12:51:00,18.9,11.9,29.55,West,270,0.0,0.1,74,0.00,CLR,,0.00,WeatherDisplay:10.37,2013-01-14 19:51:00,
2013-01-14 12:56:00,18.9,11.9,29.54,NE,45,0.0,0.0,74,0.00,CLR,,0.00,WeatherDisplay:10.37,2013-01-14 19:56:00,
2013-01-14 13:01:00,19.0,12.1,29.54,WSW,248,0.0,0.0,74,0.00,CLR,,0.00,WeatherDisplay:10.37,2013-01-14 20:01:00,
2013-01-14 13:06:00,19.0,12.1,29.54,WNW,292,0.0,0.0,74,0.00,CLR,,0.00,WeatherDisplay:10.37,2013-01-14 20:06:00,
2013-01-14 13:11:00,19.6,12.6,29.54,SE,135,0.0,0.0,74,0.00,CLR,,0.00,WeatherDisplay:10.37,2013-01-14 20:11:00,
2013-01-14 13:16:00,19.6,12.6,29.50,West,270,0.0,0.0,74,0.00,CLR,,0.00,WeatherDisplay:10.37,2013-01-14 20:16:00,
2013-01-14 13:21:00,19.8,12.8,29.50,WSW,248,0.0,0.0,74,0.00,CLR,,0.00,WeatherDisplay:10.37,2013-01-14 20:21:00,
2013-01-14 13:26:00,19.8,12.5,29.50,WSW,248,0.0,0.0,73,0.00,CLR,,0.00,WeatherDisplay:10.37,2013-01-14 20:26:00,
2013-01-14 13:31:00,19.8,12.5,29.50,SW,225,0.0,0.0,73,0.00,CLR,,0.00,WeatherDisplay:10.37,2013-01-14 20:31:00,
2013-01-14 13:36:00,19.9,12.7,29.50,WSW,248,0.0,0.0,73,0.00,CLR,,0.00,WeatherDisplay:10.37,2013-01-14 20:36:00,
2013-01-14 13:41:00,19.6,12.3,29.50,WSW,248,0.0,0.0,73,0.00,CLR,,0.00,WeatherDisplay:10.37,2013-01-14 20:41:00,
2013-01-14 13:46:00,19.6,12.3,29.50,SW,225,0.0,0.0,73,0.00,CLR,,0.00,WeatherDisplay:10.37,2013-01-14 20:46:00,
2013-01-14 13:51:00,19.6,12.3,29.50,SW,225,0.0,0.0,73,0.00,CLR,,0.00,WeatherDisplay:10.37,2013-01-14 20:51:00,
2013-01-14 13:56:00,19.6,12.3,29.47,SSW,202,1.1,1.1,73,0.00,CLR,,0.00,WeatherDisplay:10.37,2013-01-14 20:56:00,
2013-01-14 14:01:00,19.2,12.0,29.47,SE,135,1.1,1.1,73,0.00,CLR,,0.00,WeatherDisplay:10.37,2013-01-14 21:01:00,
2013-01-14 14:06:00,19.2,12.0,29.47,ENE,68,0.0,0.3,73,0.00,CLR,,0.00,WeatherDisplay:10.37,2013-01-14 21:06:00,
2013-01-14 14:11:00,19.2,12.3,29.47,SSE,158,0.0,0.1,74,0.00,CLR,,0.00,WeatherDisplay:10.37,2013-01-14 21:11:00,
2013-01-14 14:16:00,19.6,12.6,29.47,WSW,248,0.0,0.0,74,0.00,CLR,,0.00,WeatherDisplay:10.37,2013-01-14 21:16:00,
2013-01-14 14:21:00,19.6,12.6,29.47,WSW,248,0.0,0.0,74,0.00,CLR,,0.00,WeatherDisplay:10.37,2013-01-14 21:21:00,
2013-01-14 14:26:00,19.6,12.6,29.47,SW,225,0.0,0.0,74,0.00,CLR,,0.00,WeatherDisplay:10.37,2013-01-14 21:26:00,
2013-01-14 14:31:00,19.6,12.6,29.47,WNW,292,0.0,0.0,74,0.00,CLR,,0.00,WeatherDisplay:10.37,2013-01-14 21:31:00,
2013-01-14 14:36:00,19.6,12.6,29.48,North,0,0.0,0.0,74,0.00,CLR,,0.00,WeatherDisplay:10.37,2013-01-14 21:36:00,
2013-01-14 14:41:00,19.9,13.0,29.48,North,0,0.0,0.0,74,0.00,CLR,,0.00,WeatherDisplay:10.37,2013-01-14 21:41:00,
2013-01-14 14:46:00,20.1,13.2,29.48,North,0,0.0,0.0,74,0.00,CLR,,0.00,WeatherDisplay:10.37,2013-01-14 21:46:00,
2013-01-14 14:51:00,20.3,13.3,29.48,North,0,0.0,0.0,74,0.00,CLR,,0.00,WeatherDisplay:10.37,2013-01-14 21:51:00,
2013-01-14 14:56:00,20.3,13.3,29.49,NNW,338,0.0,0.0,74,0.00,CLR,,0.00,WeatherDisplay:10.37,2013-01-14 21:56:00,
2013-01-14 15:01:00,20.3,13.3,29.49,NNW,338,0.0,0.0,74,0.00,CLR,,0.00,WeatherDisplay:10.37,2013-01-14 22:01:00,
2013-01-14 15:06:00,20.7,13.7,29.49,South,180,0.0,0.0,74,0.00,CLR,,0.00,WeatherDisplay:10.37,2013-01-14 22:06:00,
2013-01-14 15:11:00,20.3,13.3,29.49,SSW,202,0.0,0.1,74,0.00,CLR,,0.00,WeatherDisplay:10.37,2013-01-14 22:11:00,
2013-01-14 15:16:00,20.1,13.2,29.49,SW,225,0.0,0.1,74,0.00,CLR,,0.00,WeatherDisplay:10.37,2013-01-14 22:16:00,
2013-01-14 15:21:00,19.9,13.0,29.49,SW,225,0.0,0.0,74,0.00,CLR,,0.00,WeatherDisplay:10.37,2013-01-14 22:21:00,
2013-01-14 15:26:00,19.8,12.8,29.49,SE,135,0.0,0.0,74,0.00,CLR,,0.00,WeatherDisplay:10.37,2013-01-14 22:26:00,
2013-01-14 15:31:00,19.6,12.6,29.49,SW,225,0.0,0.0,74,0.00,CLR,,0.00,WeatherDisplay:10.37,2013-01-14 22:31:00,
2013-01-14 15:36:00,19.6,12.6,29.49,ENE,68,1.1,1.1,74,0.00,CLR,,0.00,WeatherDisplay:10.37,2013-01-14 22:36:00,
2013-01-14 15:41:00,19.6,12.6,29.49,SSE,158,0.0,0.1,74,0.00,CLR,,0.00,WeatherDisplay:10.37,2013-01-14 22:41:00,
2013-01-14 15:46:00,19.6,12.6,29.49,SW,225,0.0,0.0,74,0.00,CLR,,0.00,WeatherDisplay:10.37,2013-01-14 22:46:00,
2013-01-14 15:51:00,19.6,12.6,29.49,SE,135,0.0,0.0,74,0.00,CLR,,0.00,WeatherDisplay:10.37,2013-01-14 22:51:00,
2013-01-14 15:56:00,19.2,12.3,29.48,ESE,112,0.0,0.0,74,0.00,CLR,,0.00,WeatherDisplay:10.37,2013-01-14 22:56:00,
2013-01-14 16:01:00,19.2,12.3,29.48,ESE,112,0.0,0.0,74,0.00,CLR,,0.00,WeatherDisplay:10.37,2013-01-14 23:01:00,
2013-01-14 16:06:00,19.2,12.3,29.48,NNW,338,0.0,0.0,74,0.00,CLR,,0.00,WeatherDisplay:10.37,2013-01-14 23:06:00,
2013-01-14 16:11:00,19.2,12.3,29.48,NW,315,0.0,0.0,74,0.00,CLR,,0.00,WeatherDisplay:10.37,2013-01-14 23:11:00,
2013-01-14 16:16:00,19.2,12.3,29.48,North,0,0.0,0.0,74,0.00,CLR,,0.00,WeatherDisplay:10.37,2013-01-14 23:16:00,
2013-01-14 16:21:00,19.2,12.3,29.48,North,0,0.0,0.0,74,0.00,CLR,,0.00,WeatherDisplay:10.37,2013-01-14 23:21:00,
2013-01-14 16:26:00,19.2,12.3,29.48,NNW,338,0.0,0.0,74,0.00,CLR,,0.00,WeatherDisplay:10.37,2013-01-14 23:26:00,
2013-01-14 16:31:00,19.0,12.1,29.48,NW,315,0.0,0.0,74,0.00,CLR,,0.00,WeatherDisplay:10.37,2013-01-14 23:31:00,
2013-01-14 16:36:00,19.0,12.1,29.48,NW,315,0.0,0.0,74,0.00,CLR,,0.00,WeatherDisplay:10.37,2013-01-14 23:36:00,
2013-01-14 16:41:00,18.9,11.9,29.48,North,0,0.0,0.0,74,0.00,CLR,,0.00,WeatherDisplay:10.37,2013-01-14 23:41:00,
2013-01-14 16:46:00,18.9,11.9,29.48,SSW,202,0.0,0.0,74,0.00,CLR,,0.00,WeatherDisplay:10.37,2013-01-14 23:46:00,
2013-01-14 16:51:00,18.9,11.9,29.48,North,0,0.0,0.0,74,0.00,CLR,,0.00,WeatherDisplay:10.37,2013-01-14 23:51:00,
2013-01-14 16:56:00,18.9,12.2,29.49,North,0,0.0,0.0,75,0.00,CLR,,0.00,WeatherDisplay:10.37,2013-01-14 23:56:00,
2013-01-14 17:02:00,18.5,11.9,29.49,ENE,68,0.0,0.0,75,0.00,CLR,,0.00,WeatherDisplay:10.37,2013-01-15 00:02:00,
2013-01-14 17:07:00,18.5,11.9,29.49,North,0,0.0,0.0,75,0.00,CLR,,0.00,WeatherDisplay:10.37,2013-01-15 00:07:00,
2013-01-14 17:12:00,18.5,11.9,29.49,East,90,0.0,0.0,75,0.00,CLR,,0.00,WeatherDisplay:10.37,2013-01-15 00:12:00,
2013-01-14 17:17:00,18.3,11.7,29.47,East,90,0.0,0.0,75,0.00,CLR,,0.00,WeatherDisplay:10.37,2013-01-15 00:17:00,
2013-01-14 17:22:00,18.1,11.5,29.47,North,0,0.0,0.0,75,0.00,CLR,,0.00,WeatherDisplay:10.37,2013-01-15 00:22:00,
2013-01-14 17:27:00,18.3,11.7,29.47,North,0,0.0,0.0,75,0.00,CLR,,0.00,WeatherDisplay:10.37,2013-01-15 00:27:00,
2013-01-14 17:32:00,18.3,11.7,29.47,West,270,0.0,0.0,75,0.00,CLR,,0.00,WeatherDisplay:10.37,2013-01-15 00:32:00,
2013-01-14 17:37:00,18.1,11.5,29.47,ESE,112,0.0,0.0,75,0.00,CLR,,0.00,WeatherDisplay:10.37,2013-01-15 00:37:00,
2013-01-14 17:42:00,18.1,11.5,29.47,SE,135,0.0,0.0,75,0.00,CLR,,0.00,WeatherDisplay:10.37,2013-01-15 00:42:00,
2013-01-14 17:47:00,18.1,11.5,29.47,North,0,0.0,0.0,75,0.00,CLR,,0.00,WeatherDisplay:10.37,2013-01-15 00:47:00,
2013-01-14 17:52:00,18.1,11.5,29.47,North,0,0.0,0.0,75,0.00,CLR,,0.00,WeatherDisplay:10.37,2013-01-15 00:52:00,
2013-01-14 17:57:00,18.1,11.5,29.47,ENE,68,0.0,0.0,75,0.00,CLR,,0.00,WeatherDisplay:10.37,2013-01-15 00:57:00,
2013-01-14 18:02:00,18.1,11.5,29.47,ENE,68,0.0,0.0,75,0.00,CLR,,0.00,WeatherDisplay:10.37,2013-01-15 01:02:00,
2013-01-14 18:07:00,18.1,11.5,29.47,ENE,68,0.0,0.0,75,0.00,CLR,,0.00,WeatherDisplay:10.37,2013-01-15 01:07:00,
2013-01-14 18:12:00,18.1,11.5,29.47,ENE,68,0.0,0.0,75,0.00,CLR,,0.00,WeatherDisplay:10.37,2013-01-15 01:12:00,
2013-01-14 18:17:00,18.1,11.5,29.47,NNW,338,0.0,0.0,75,0.00,CLR,,0.00,WeatherDisplay:10.37,2013-01-15 01:17:00,
2013-01-14 18:22:00,18.1,11.5,29.47,NE,45,0.0,0.0,75,0.00,CLR,,0.00,WeatherDisplay:10.37,2013-01-15 01:22:00,
2013-01-14 18:27:00,18.0,11.4,29.47,North,0,0.0,0.0,75,0.00,CLR,,0.00,WeatherDisplay:10.37,2013-01-15 01:27:00,
2013-01-14 18:32:00,18.1,11.5,29.47,NNW,338,0.0,0.0,75,0.00,CLR,,0.00,WeatherDisplay:10.37,2013-01-15 01:32:00,
2013-01-14 18:37:00,18.1,11.5,29.47,North,0,0.0,0.0,75,0.00,CLR,,0.00,WeatherDisplay:10.37,2013-01-15 01:37:00,
2013-01-14 18:42:00,18.1,11.5,29.47,NE,45,0.0,0.0,75,0.00,CLR,,0.00,WeatherDisplay:10.37,2013-01-15 01:42:00,
2013-01-14 18:47:00,18.1,11.5,29.47,North,0,0.0,0.0,75,0.00,CLR,,0.00,WeatherDisplay:10.37,2013-01-15 01:47:00,
2013-01-14 18:52:00,18.1,11.8,29.47,ENE,68,0.0,0.0,76,0.00,CLR,,0.00,WeatherDisplay:10.37,2013-01-15 01:52:00,
2013-01-14 18:57:00,18.1,11.8,29.47,NE,45,0.0,0.0,76,0.00,CLR,,0.00,WeatherDisplay:10.37,2013-01-15 01:57:00,
2013-01-14 19:02:00,18.1,11.8,29.47,North,0,0.0,0.0,76,0.00,CLR,,0.00,WeatherDisplay:10.37,2013-01-15 02:02:00,
2013-01-14 19:07:00,18.5,12.2,29.47,NNE,22,0.0,0.0,76,0.00,CLR,,0.00,WeatherDisplay:10.37,2013-01-15 02:07:00,
2013-01-14 19:12:00,18.3,12.0,29.47,East,90,0.0,0.0,76,0.00,CLR,,0.00,WeatherDisplay:10.37,2013-01-15 02:12:00,
2013-01-14 19:17:00,18.3,12.0,29.48,NE,45,0.0,0.0,76,0.00,CLR,,0.00,WeatherDisplay:10.37,2013-01-15 02:17:00,
2013-01-14 19:22:00,18.3,12.0,29.48,NNE,22,0.0,0.0,76,0.00,CLR,,0.00,WeatherDisplay:10.37,2013-01-15 02:22:00,
2013-01-14 19:27:00,18.3,12.0,29.48,North,0,0.0,0.0,76,0.00,CLR,,0.00,WeatherDisplay:10.37,2013-01-15 02:27:00,
2013-01-14 19:32:00,18.3,12.0,29.48,NNW,338,0.0,0.0,76,0.00,CLR,,0.00,WeatherDisplay:10.37,2013-01-15 02:32:00,
2013-01-14 19:37:00,18.5,12.2,29.47,NNW,338,0.0,0.0,76,0.00,CLR,,0.00,WeatherDisplay:10.37,2013-01-15 02:37:00,
2013-01-14 19:42:00,18.5,12.2,29.47,North,0,0.0,0.0,76,0.00,CLR,,0.00,WeatherDisplay:10.37,2013-01-15 02:42:00,
2013-01-14 19:47:00,18.5,12.2,29.47,NNW,338,0.0,0.0,76,0.00,CLR,,0.00,WeatherDisplay:10.37,2013-01-15 02:47:00,
2013-01-14 19:52:00,18.5,12.2,29.47,NNW,338,0.0,0.0,76,0.00,CLR,,0.00,WeatherDisplay:10.37,2013-01-15 02:52:00,
2013-01-14 19:57:00,18.5,12.2,29.49,North,0,0.0,0.0,76,0.00,CLR,,0.00,WeatherDisplay:10.37,2013-01-15 02:57:00,
2013-01-14 20:02:00,18.5,12.2,29.49,North,0,0.0,0.0,76,0.00,CLR,,0.00,WeatherDisplay:10.37,2013-01-15 03:02:00,
2013-01-14 20:07:00,18.5,12.2,29.49,North,0,0.0,0.0,76,0.00,CLR,,0.00,WeatherDisplay:10.37,2013-01-15 03:07:00,
2013-01-14 20:12:00,18.5,12.2,29.49,North,0,0.0,0.0,76,0.00,CLR,,0.00,WeatherDisplay:10.37,2013-01-15 03:12:00,
2013-01-14 20:17:00,18.9,12.5,29.49,NNW,338,0.0,0.0,76,0.00,CLR,,0.00,WeatherDisplay:10.37,2013-01-15 03:17:00,
2013-01-14 20:22:00,18.9,12.5,29.49,North,0,0.0,0.0,76,0.00,CLR,,0.00,WeatherDisplay:10.37,2013-01-15 03:22:00,
2013-01-14 20:27:00,18.9,12.5,29.49,NNW,338,0.0,0.0,76,0.00,CLR,,0.00,WeatherDisplay:10.37,2013-01-15 03:27:00,
2013-01-14 20:32:00,18.9,12.5,29.49,NNE,22,0.0,0.0,76,0.00,CLR,,0.00,WeatherDisplay:10.37,2013-01-15 03:32:00,
2013-01-14 20:37:00,18.9,12.5,29.50,North,0,0.0,0.0,76,0.00,CLR,,0.00,WeatherDisplay:10.37,2013-01-15 03:37:00,
2013-01-14 20:42:00,18.7,12.4,29.50,NNW,338,0.0,0.0,76,0.00,CLR,,0.00,WeatherDisplay:10.37,2013-01-15 03:42:00,
2013-01-14 20:47:00,18.7,12.4,29.50,North,0,0.0,0.0,76,0.00,CLR,,0.00,WeatherDisplay:10.37,2013-01-15 03:47:00,
2013-01-14 20:52:00,18.9,12.5,29.50,North,0,0.0,0.0,76,0.00,CLR,,0.00,WeatherDisplay:10.37,2013-01-15 03:52:00,
2013-01-14 20:57:00,18.9,12.5,29.50,North,0,0.0,0.0,76,0.00,CLR,,0.00,WeatherDisplay:10.37,2013-01-15 03:57:00,
2013-01-14 21:02:00,18.9,12.8,29.50,North,0,0.0,0.0,77,0.00,CLR,,0.00,WeatherDisplay:10.37,2013-01-15 04:02:00,
2013-01-14 21:07:00,18.9,12.8,29.50,North,0,0.0,0.0,77,0.00,CLR,,0.00,WeatherDisplay:10.37,2013-01-15 04:07:00,
2013-01-14 21:12:00,18.9,12.8,29.50,North,0,0.0,0.0,77,0.00,CLR,,0.00,WeatherDisplay:10.37,2013-01-15 04:12:00,
2013-01-14 21:17:00,18.9,12.8,29.50,North,0,0.0,0.0,77,0.00,CLR,,0.00,WeatherDisplay:10.37,2013-01-15 04:17:00,
2013-01-14 21:22:00,18.9,12.8,29.50,North,0,0.0,0.0,77,0.00,CLR,,0.00,WeatherDisplay:10.37,2013-01-15 04:22:00,
2013-01-14 21:27:00,18.9,12.8,29.50,North,0,0.0,0.0,77,0.00,CLR,,0.00,WeatherDisplay:10.37,2013-01-15 04:27:00,
2013-01-14 21:32:00,18.9,12.8,29.50,North,0,0.0,0.0,77,0.00,CLR,,0.00,WeatherDisplay:10.37,2013-01-15 04:32:00,
2013-01-14 21:37:00,18.9,12.8,29.50,North,0,0.0,0.0,77,0.00,CLR,,0.00,WeatherDisplay:10.37,2013-01-15 04:37:00,
2013-01-14 21:42:00,18.9,12.8,29.50,NNW,338,0.0,0.0,77,0.00,CLR,,0.00,WeatherDisplay:10.37,2013-01-15 04:42:00,
2013-01-14 23:56:00,19.6,13.5,29.53,WSW,248,0.0,0.0,77,0.00,CLR,,0.00,WeatherDisplay:10.37,2013-01-15 06:56:00,
2013-01-14 23:58:00,19.6,13.5,29.53,WSW,248,0.0,0.0,77,0.00,CLR,,0.00,WeatherDisplay:10.37,2013-01-15 06:58:00,